{"data":{"norad_id":54202,"epoch":"2026-09-20T06:45:53.323488Z","epoch_age_seconds":108691,"freshness":"FRESH","line1":"1 54202U 22141AX  26263.28186717  .00001214  00000+0  45690-4 0  9997","line2":"2 54202  53.1596 188.7490 0001092  90.4220 269.6908 15.35400249215539","mean_motion":15.35400249,"eccentricity":0.0001092,"inclination_deg":53.1596,"raan_deg":188.749,"arg_perigee_deg":90.422,"mean_anomaly_deg":269.6908,"bstar":4.569e-5,"rev_number":21553,"period_min":93.786620194823,"perigee_km":458.98520817964,"apogee_km":460.47859874815,"semimajor_km":6837.8689034639,"source":"CELESTRAK","updated_at":"2026-09-21T09:00:33.117217Z"}}